Location: G�migny
(47.9646°N, 1.6950°E)
Time: 22:49:25
(UTC+00:00)

STARLINK-65 - Pass Details

Date: 23 October 2019
Orbit: 548 x 551 km, 53.0° (Epoch: 13 November)

Event Time Altitude Azimuth Distance (km) Brightness Sun altitude
Rises 18:27:26 0° 291° (WNW) 2,720 8.5 -16.8°
Reaches altitude 10° 18:29:44 10° 297° (WNW) 1,826 7.3 -17.2°
Maximum altitude 18:33:45 47° 13° (NNE) 730 4.1 -17.9°
Enters shadow 18:34:53 37° 58° (ENE) 871 4.2 -18.1°
